Weather History for Harrison, AR

Change the Weather History Date:

Saturday, May 4, 2013

  Actual Average Record
Temperature  
Mean Temperature 39 °F 63 °F  
Max Temperature 44 °F 73 °F 91 °F (1955)
Min Temperature 34 °F 52 °F 30 °F (1907)
Degree Days  
Heating Degree Days 26 4  
Month to date heating degree days 73 16  
Since 1 July heating degree days 3909 3937  
Cooling Degree Days 0 2  
Month to date cooling degree days 3 8  
Year to date cooling degree days 35 45  
Moisture  
Dew Point 36 °F    
Average Humidity 88    
Maximum Humidity 100    
Minimum Humidity 76    
Precipitation  
Precipitation 0.19 in 0.17 in 3.35 in (1920)
Month to date precipitation 1.54 0.68  
Year to date precipitation 14.88 13.99  
Snow  
Snow T in 0.00 in - ()
Month to date snowfall 0.1 0.0  
Since 1 July snowfall 4.7 11.5  
Snow Depth 0.00 in    
Sea Level Pressure  
Sea Level Pressure 29.89 in    
Wind  
Wind Speed 4 mph (WNW)    
Max Wind Speed 12 mph    
Max Gust Speed 16 mph    
Visibility 9 miles    
Events Rain , Snow    
T = Trace of Precipitation, MM = Missing Value Source: NWS Daily Summary

Daily Weather History Graph

Daily Weather History Graph

Search for Another Location

Airport:

Trip Planner

Search our weather history database for the weather conditions in past years. The results will help you decide how hot, cold, wet, or windy it might be!

Date:

Astronomy

May. 04, 2013 Rise Set
Actual Time 6:16 AM CDT 8:03 PM CDT
Civil Twilight 5:48 AM CDT 8:31 PM CDT
Nautical Twilight 5:14 AM CDT 9:04 PM CDT
Astronomical Twilight 4:39 AM CDT 9:40 PM CDT
Moon 3:05 AM CDT (5/4) 3:09 PM CDT (5/4)
Length of Visible Light 14h 42m
Length of Day
13h 47m
Waning Crescent, 27% of the Moon is Illuminated
May 4
Waning Crescent
May 9
New
May 17
First Quarter
May 24
Full
May 31
Last Quarter

Hourly Weather History & Observations

Time (CDT) Temp. Windchill Dew Point Humidity Pressure Visibility Wind Dir Wind Speed Gust Speed Precip Events Conditions
12:15 AM 35.6 °F 28.6 °F 33.8 °F 93% 29.90 in 10.0 mi WNW 9.2 mph - 0.00 in   Overcast
12:53 AM 36.0 °F 29.6 °F 34.0 °F 93% 29.91 in 10.0 mi West 8.1 mph - 0.00 in   Overcast
1:00 AM 35.6 °F 29.9 °F 33.8 °F 93% 29.89 in 10.0 mi WNW 6.9 mph - N/A   Overcast
1:08 AM 35.6 °F 29.9 °F 33.8 °F 93% 29.89 in 10.0 mi West 6.9 mph - N/A   Overcast
1:53 AM 35.1 °F 31.0 °F 34.0 °F 96% 29.90 in 10.0 mi WNW 4.6 mph - 0.00 in   Overcast
2:02 AM 35.6 °F 30.7 °F 33.8 °F 93% 29.88 in 10.0 mi West 5.8 mph - N/A   Overcast
2:34 AM 35.6 °F 31.7 °F 33.8 °F 93% 29.87 in 10.0 mi West 4.6 mph - 0.00 in Rain Light Rain
2:53 AM 34.0 °F 29.8 °F 33.1 °F 96% 29.89 in 5.0 mi West 4.6 mph - 0.00 in Snow Light Snow
3:53 AM 34.0 °F 31.0 °F 33.1 °F 96% 29.88 in 5.0 mi West 3.5 mph - 0.01 in Snow Light Snow
4:10 AM 33.8 °F - 33.8 °F 100% 29.85 in 6.0 mi Calm Calm - 0.00 in   Overcast
4:28 AM 33.8 °F - 33.8 °F 100% 29.85 in 9.0 mi Calm Calm - 0.01 in   Overcast
4:35 AM 33.8 °F 30.8 °F 33.8 °F 100% 29.85 in 9.0 mi West 3.5 mph - 0.01 in   Overcast
4:53 AM 35.1 °F 32.2 °F 33.1 °F 92% 29.87 in 10.0 mi WSW 3.5 mph - 0.01 in   Overcast
5:07 AM 35.6 °F - 33.8 °F 93% 29.85 in 10.0 mi Calm Calm - 0.00 in   Overcast
5:53 AM 34.0 °F 31.0 °F 33.1 °F 96% 29.87 in 6.0 mi SW 3.5 mph - 0.01 in Snow Light Snow
6:34 AM 33.8 °F - 33.8 °F 100% 29.85 in 9.0 mi Calm Calm - 0.00 in Snow Light Snow
6:53 AM 34.0 °F - 33.1 °F 96% 29.88 in 4.0 mi Calm Calm - 0.01 in   Overcast
7:18 AM 35.6 °F 32.8 °F 33.8 °F 93% 29.85 in 10.0 mi WSW 3.5 mph - 0.00 in   Overcast
7:37 AM 35.6 °F 32.8 °F 33.8 °F 93% 29.85 in 10.0 mi WSW 3.5 mph - 0.00 in   Overcast
7:53 AM 36.0 °F 32.1 °F 34.0 °F 93% 29.87 in 10.0 mi West 4.6 mph - 0.00 in   Overcast
8:38 AM 37.4 °F 34.9 °F 35.6 °F 93% 29.85 in 10.0 mi West 3.5 mph - 0.00 in Rain Light Rain
8:53 AM 37.9 °F 34.4 °F 36.0 °F 93% 29.87 in 10.0 mi West 4.6 mph - 0.00 in Rain Light Rain
9:06 AM 37.4 °F 32.8 °F 35.6 °F 93% 29.85 in 10.0 mi WSW 5.8 mph - 0.00 in Rain Light Rain
9:13 AM 37.4 °F 34.9 °F 35.6 °F 93% 29.85 in 10.0 mi West 3.5 mph - 0.00 in Rain Light Rain
9:31 AM 37.4 °F 33.8 °F 35.6 °F 93% 29.85 in 10.0 mi Variable 4.6 mph - 0.00 in Rain Light Rain
9:53 AM 39.0 °F 36.8 °F 35.1 °F 86% 29.88 in 10.0 mi Variable 3.5 mph - 0.00 in Rain Light Rain
10:15 AM 37.4 °F - 33.8 °F 87% 29.85 in 10.0 mi Calm Calm - 0.01 in Rain Light Rain
10:53 AM 39.9 °F 37.8 °F 35.1 °F 83% 29.87 in 10.0 mi East 3.5 mph - 0.01 in Rain Light Rain
11:35 AM 39.2 °F 37.0 °F 37.4 °F 93% 29.86 in 7.0 mi NE 3.5 mph - 0.03 in Rain Light Rain
11:53 AM 42.1 °F - 37.9 °F 85% 29.88 in 10.0 mi Calm Calm - 0.03 in   Overcast
12:26 PM 41.0 °F - 37.4 °F 87% 29.86 in 9.0 mi Calm Calm - 0.00 in Rain Light Rain
12:53 PM 39.9 °F 37.8 °F 36.0 °F 86% 29.88 in 8.0 mi WSW 3.5 mph - 0.00 in Rain Light Rain
1:14 PM 41.0 °F - 37.4 °F 87% 29.86 in 10.0 mi Calm Calm - 0.00 in   Overcast
1:25 PM 42.8 °F 39.3 °F 39.2 °F 87% 29.87 in 10.0 mi ESE 5.8 mph - 0.00 in   Overcast
1:53 PM 42.1 °F - 37.0 °F 82% 29.89 in 10.0 mi Calm Calm - 0.00 in Rain Light Rain
2:03 PM 41.0 °F 35.8 °F 35.6 °F 81% 29.88 in 10.0 mi West 8.1 mph - 0.00 in Rain Light Rain
2:53 PM 39.9 °F 36.7 °F 37.9 °F 93% 29.90 in 4.0 mi West 4.6 mph - 0.08 in Rain Rain
3:53 PM 39.9 °F 35.8 °F 37.9 °F 93% 29.92 in 4.0 mi North 5.8 mph - 0.02 in Rain Light Rain
4:41 PM 41.0 °F 38.0 °F 37.4 °F 87% 29.90 in 7.0 mi WNW 4.6 mph - 0.01 in Rain Light Rain
4:53 PM 42.1 °F 40.2 °F 39.0 °F 89% 29.92 in 10.0 mi NW 3.5 mph - 0.01 in   Overcast
5:36 PM 42.8 °F 39.3 °F 37.4 °F 81% 29.91 in 10.0 mi NNW 5.8 mph - 0.00 in Rain Light Rain
5:53 PM 42.1 °F 39.2 °F 37.9 °F 85% 29.93 in 10.0 mi North 4.6 mph - 0.00 in   Overcast
6:17 PM 42.8 °F 39.3 °F 37.4 °F 81% 29.92 in 10.0 mi North 5.8 mph - N/A   Overcast
6:32 PM 42.8 °F 38.0 °F 39.2 °F 87% 29.92 in 10.0 mi NNE 8.1 mph - N/A   Overcast
6:43 PM 44.6 °F 40.2 °F 37.4 °F 76% 29.92 in 10.0 mi NNE 8.1 mph - N/A   Overcast
6:53 PM 43.0 °F 40.3 °F 36.0 °F 76% 29.94 in 10.0 mi North 4.6 mph - N/A   Overcast
7:13 PM 42.8 °F 36.6 °F 37.4 °F 81% 29.93 in 10.0 mi NNE 11.5 mph 16.1 mph N/A   Overcast
7:40 PM 41.0 °F 39.0 °F 37.4 °F 87% 29.94 in 10.0 mi North 3.5 mph - 0.00 in   Overcast
7:53 PM 41.0 °F 39.0 °F 37.0 °F 86% 29.96 in 10.0 mi North 3.5 mph - 0.00 in   Overcast
8:35 PM 41.0 °F 39.0 °F 37.4 °F 87% 29.95 in 10.0 mi North 3.5 mph - N/A   Overcast
8:53 PM 41.0 °F 39.0 °F 37.9 °F 89% 29.97 in 10.0 mi North 3.5 mph - N/A   Overcast
9:53 PM 37.9 °F - 36.0 °F 93% 29.99 in 10.0 mi Calm Calm - N/A   Mostly Cloudy
10:53 PM 37.0 °F 33.3 °F 36.0 °F 96% 30.00 in 10.0 mi WNW 4.6 mph - N/A   Partly Cloudy
11:53 PM 37.0 °F 32.4 °F 35.1 °F 93% 29.99 in 10.0 mi WNW 5.8 mph - N/A   Scattered Clouds